Weather Service Report


212 
ASUS44 KJAN 020203
RWRMS 

MISSISSIPPI HOURLY WEATHER ROUNDUP
NATIONAL WEATHER SERVICE JACKSON MS
900 PM CDT WED OCT 01 2014

NOTE: "FAIR: INDICATES FEW OR NO CLOUDS BELOW 12,000 FEET WITH NO
SIGNIFICANT WEATHER AND/OR OBSTRUCTIONS TO VISIBILITY.

MSZ001>002-007>008-010>013-018>021-025>028-034>036-020300-
NORTHWEST MISSISSIPPI
  
CITY           SKY/WX    TMP DP  RH WIND       PRES   REMARKS
CLARKSDALE     FAIR      77  66  69 SE8       29.90R                  
CLEVELAND      FAIR      80  67  64 SE7       29.89R                  
GREENWOOD      CLEAR     73  67  81 E5        29.91R                  
GREENVILLE     CLEAR     81  64  56 SE8       29.88R                  
GRENADA        FAIR      70  64  83 CALM      29.93R                  
OLIVE BRANCH   CLEAR     77  64  65 SE7       29.92R                  
OXFORD         FAIR      72  64  78 SE7       29.95R                  
TUNICA         CLEAR     73  64  73 SE8       29.91R                  
$$

MSZ003>006-009-014>017-022>024-029>033-037>039-020300-
NORTHEAST MISSISSIPPI
  
CITY           SKY/WX    TMP DP  RH WIND       PRES   REMARKS
COLUMBUS AFB   CLEAR     70  64  80 CALM      29.94R                  
CORINTH          N/A     70  63  78 CALM      29.94R                  
GOLDN TRIANGLE CLEAR     77  61  57 SE7       29.94R                  
STARKVILLE     FAIR      72  63  73 CALM      29.94R                  
TUPELO         PTCLDY    75  61  61 CALM      29.94R                  
$$

MSZ040-058-020300-
CENTRAL MISSISSIPPI
  
CITY           SKY/WX    TMP DP  RH WIND       PRES   REMARKS
JACKSON INTL   CLEAR     76  68  76 SE7       29.93R                  
JACKSON HAWKNS CLEAR     79  67  66 SE8       29.93R                  
MERIDIAN KEY   CLEAR     71  64  78 CALM      29.95R                  
MERIDIAN NAS   PTCLDY    74  65  73 SE3       29.96R                  
RAYMOND        FAIR      77  73  88 SE3       29.92R                  
VICKSBURG      PTCLDY    80  69  69 SE7       29.89R                  
$$

MSZ059>079-020300-
SOUTH MISSISSIPPI
  
CITY           SKY/WX    TMP DP  RH WIND       PRES   REMARKS
BROOKHAVEN     CLOUDY    79  73  83 SE5       29.95R                  
COLUMBIA       FAIR      75  72  88 S7        29.94R                  
HATTIESBURG    CLEAR     77  71  82 S6        29.96R                  
MCCOMB         PTCLDY    76  72  87 SE9       29.94R                  
NATCHEZ        CLEAR     77  72  83 SE7       29.92R                  
PINE BELT      CLEAR     75  70  83 S5        29.97R                  
$$

MSZ080>082-020300-
COASTAL MISSISSIPPI
  
CITY           SKY/WX    TMP DP  RH WIND       PRES   REMARKS
BAY ST LOUIS   PTCLDY    79  72  78 SE3       29.95R                  
BILOXI         PTCLDY    79  74  84 SE7       29.95R                  
PASCAGOULA     PTCLDY    73  71  93 CALM      29.96R                  
GULFPORT       CLEAR     79  74  84 SE9       29.95R                  
$$

Return to Home page


Western Regional Climate Center, wrcc@dri.edu